Powrót do katalogu

FENGYUN 1C DEB

AktywnyPO
NORAD 30515·DEBRIS·🇨🇳 China

Wystrzelony May 10, 1999 z Taiyuan Satellite Launch Center

Loading…

Następne Przeloty (najbliższe 24 godziny)

TLE

ŚwieżeSource: Space-Track

Epoka: Sep 14, 2026, 13:01 UTC

1 30515U 99025AJD 26257.54257875  .00000781  00000-0  43853-3 0  9996
2 30515  98.4802 105.3276 0494945  62.9546 329.6212 13.64592088970915

Śledź FENGYUN 1C DEB w czasie rzeczywistym z AllMySat

Download on the App Store